Regional Weather Roundup
Issued by NWS

Home | Current Version | Previous Version | Graphics & Text | Print | Product List | Glossary Off
Versions: 1 2 3 4 5 6 7 8 9 10 11 12 13 14 15 16 17 18 19 20 21 22 23 24 25 26 27 28 29 30 31 32 33 34 35 36 37 38 39 40 41 42 43 44 45 46 47 48 49 50

000
ASUS43 KTOP 260659
RWRKS

WEATHER ROUNDUP FOR KANSAS
NATIONAL WEATHER SERVICE GOODLAND KS
100 AM CST MON JAN 26 2015

NOTE:  "FAIR" INDICATES FEW OR NO CLOUDS BELOW 12,000 FEET WITH NO
SIGNIFICANT WEATHER AND/OR OBSTRUCTIONS TO VISIBILITY.

KSZ001>006-013>018-027>032-041>047-260800-
NORTHWEST KANSAS

CITY           SKY/WX    TMP DP  RH WIND       PRES   REMARKS
GOODLAND       CLEAR     41  31  67 W17       30.12S
HAYS           MOCLDY    28  18  64 S3        30.11S
HILL CITY      PTCLDY    33  21  61 W3        30.07F
RUSSELL        CLOUDY    31  26  82 SW13      30.09F WCI  21
$$

KSZ061>065-074>080-084>089-260800-
SOUTHWEST KANSAS

CITY           SKY/WX    TMP DP  RH WIND       PRES   REMARKS
DODGE CITY     CLEAR     35  21  56 SW10      30.14F WCI  27
ELKHART          N/A    N/A N/A N/A MISG        N/A
GARDEN CITY    CLEAR     32  26  78 W10       30.13S WCI  24
GREAT BEND     CLEAR     28  19  69 SW6       30.13F
LIBERAL        CLEAR     36  27  69 W10       30.18F WCI  28
$$

KSZ066>073-081>083-090>101-260800-
SOUTHEAST KANSAS

CITY           SKY/WX    TMP DP  RH WIND       PRES   REMARKS
CHANUTE        CLEAR     29  27  92 W5        30.12F
COFFEYVILLE    CLEAR     28  27  96 W5        30.15R
HUTCHINSON     CLEAR     22  19  89 CALM      30.14S
MEDICINE LODGE   N/A     28  23  81 CALM      30.15F
NEWTON         PTCLDY    27  19  74 SW5       30.15R
PARSONS        CLEAR     27  25  92 CALM      30.14S
WICHITA INTL   PTCLDY    27  23  85 W5        30.14F
WICHITA JABRA  PTCLDY    30  26  85 W7        30.13F
WINFIELD       CLEAR     25  22  88 CALM      30.17R
$$

KSZ007>012-019>026-033>040-048>060-102>105-260800-
NORTHEAST KANSAS

CITY           SKY/WX    TMP DP  RH WIND       PRES   REMARKS
CONCORDIA      CLEAR     32  29  88 SW10      30.10R WCI  24
EMPORIA        CLEAR     30  26  85 W6        30.11F
LAWRENCE       FOG       22  20  92 CALM      30.11S VSB 1
MANHATTAN      CLEAR     23  21  92 CALM      30.11F
OLATHE IND     CLEAR     25  24  96 S3        30.10F
OLATHE EXE     CLEAR     28  27  96 CALM      30.08F
SALINA         PTCLDY    27  24  89 S3        30.12S
TOPEKA BILLARD CLEAR     27  25  92 CALM      30.11S
TOPEKA FORBES  CLEAR     26  23  88 CALM      30.10S
$$


USA.gov is the U.S. government's official web portal to all federal, state and local government web resources and services.